User: anonymous
Location: Unspecified
(0.0000°N, 0.0000°E)
Time: 13:59:03
(UTC+02:00)
Language:

H-2A R/B - Orbit

View from above orbital plane
View from above orbital plane
View from above satellite
View from above satellite

Ground track
Ground track

The orbit data is extracted from the following two-line orbital elements,

1 26899U 01038B   14203.17585240  .00000266  00000-0  21756-3 0   188
2 26899 028.0294 133.3209 7134315 210.3826 351.3118 02.43727714110380
Epoch (UTC): 22 July 2014 04:13:13
Eccentricity: 0.7134315
inclination: 28.0294°
perigee height: 306 km
apogee height: 33585 km
right ascension of ascending node: 133.3209°
argument of perigee: 210.3826°
revolutions per day: 2.43727714
mean anomaly at epoch: 351.3118°
orbit number at epoch: 11038

The dashed part of the orbit path shows where the satellite is in the earth's shadow,  

DLR